When you browse on this site, cookies collect data to enhance your experience and personalize the content and advertising you see.
Visit our Privacy Policy to learn more. By continuing to use the site, you agree to this use of cookies and data.
  • în România
  • Lista ţărilor
  • Pe 7 zile
  • Temperatura apei
  • Hartă satelitară
  • Meteo pe hartă
  • Widget-uri
  • user-avatar
    Intrare

    Meteo pe oră la Arpajon-sur-Cere

    Astăzi, 25 Aprilie, Joi

    Timp Temperatura Precipitaţii Vânt Presiune Umiditate
    00:00 +8°C° 0.1 mm 7 m/s 691 mmHg 74%
    01:00 +8°C° 1.2 mm 6 m/s 691 mmHg 81%
    02:00 +7°C° 1.2 mm 5 m/s 691 mmHg 88%
    03:00 +6°C° 1.2 mm 4 m/s 691 mmHg 96%
    04:00 +6°C° 3.6 mm 4 m/s 691 mmHg 97%
    05:00 +8°C° 3.6 mm 3 m/s 691 mmHg 98%
    06:00 +8°C° 3.6 mm 3 m/s 692 mmHg 98%
    07:00 +8°C° 3.2 mm 3 m/s 692 mmHg 98%
    08:00 +8°C° 3.2 mm 2 m/s 692 mmHg 97%
    09:00 +7°C° 3.2 mm 2 m/s 692 mmHg 97%
    10:00 +7°C° 1.2 mm 2 m/s 693 mmHg 96%
    11:00 +8°C° 1.2 mm 1 m/s 693 mmHg 96%
    12:00 +8°C° 1.2 mm 1 m/s 693 mmHg 95%
    13:00 +8°C° 1 mm 1 m/s 693 mmHg 96%
    14:00 +8°C° 1 mm 1 m/s 693 mmHg 96%
    15:00 +8°C° 1 mm 1 m/s 693 mmHg 97%
    16:00 +7°C° 1.8 mm 1 m/s 693 mmHg 97%
    17:00 +7°C° 1.8 mm 1 m/s 694 mmHg 98%
    18:00 +7°C° 1.8 mm 1 m/s 694 mmHg 98%
    19:00 +7°C° 0.7 mm 1 m/s 695 mmHg 98%
    20:00 +7°C° 0.7 mm 1 m/s 695 mmHg 98%
    21:00 +6°C° 0.7 mm 1 m/s 696 mmHg 98%
    22:00 +6°C° 0.3 mm 1 m/s 696 mmHg 98%
    23:00 +6°C° 0.3 mm 1 m/s 696 mmHg 98%

    Mâine, 26 Aprilie, Vineri

    Timp Temperatura Precipitaţii Vânt Presiune Umiditate
    00:00 +6°C° 0.3 mm 1 m/s 697 mmHg 98%
    01:00 +6°C° 0.2 mm 1 m/s 697 mmHg 98%
    02:00 +5°C° 0.2 mm 1 m/s 697 mmHg 98%
    03:00 +5°C° 0.2 mm 1 m/s 698 mmHg 98%
    04:00 +5°C° 0.2 mm 1 m/s 698 mmHg 98%
    05:00 +5°C° 0.2 mm 1 m/s 699 mmHg 98%
    06:00 +5°C° 0.2 mm 1 m/s 700 mmHg 99%
    07:00 +6°C° 0.3 mm 1 m/s 700 mmHg 98%
    08:00 +5°C° 0.3 mm 2 m/s 700 mmHg 98%
    09:00 +6°C° 0.3 mm 2 m/s 701 mmHg 98%
    10:00 +6°C° 0.2 mm 2 m/s 701 mmHg 96%
    11:00 +7°C° 0.2 mm 2 m/s 701 mmHg 94%
    12:00 +8°C° 0.2 mm 3 m/s 701 mmHg 93%
    13:00 +8°C° 0.3 mm 3 m/s 702 mmHg 92%
    14:00 +9°C° 0.3 mm 3 m/s 702 mmHg 90%
    15:00 +9°C° 0.3 mm 3 m/s 702 mmHg 89%
    16:00 +9°C° 0.6 mm 3 m/s 702 mmHg 92%
    17:00 +8°C° 0.6 mm 2 m/s 703 mmHg 95%
    18:00 +8°C° 0.6 mm 2 m/s 703 mmHg 98%
    19:00 +7°C° 0.6 mm 3 m/s 704 mmHg 98%
    20:00 +7°C° 0.6 mm 3 m/s 705 mmHg 98%
    21:00 +5°C° 0.6 mm 3 m/s 706 mmHg 98%
    22:00 +5°C° 0 mm 3 m/s 706 mmHg 98%
    23:00 +5°C° 0 mm 2 m/s 706 mmHg 98%

    Poimâine, 27 Aprilie, Sâmbătă

    Timp Temperatura Precipitaţii Vânt Presiune Umiditate
    00:00 +4°C° 0 mm 2 m/s 706 mmHg 99%
    01:00 +4°C° 0.1 mm 2 m/s 706 mmHg 99%
    02:00 +4°C° 0.1 mm 1 m/s 706 mmHg 99%
    03:00 +4°C° 0.1 mm 1 m/s 706 mmHg 99%
    04:00 +4°C° 0.1 mm 1 m/s 706 mmHg 99%
    05:00 +5°C° 0.1 mm 1 m/s 706 mmHg 99%
    06:00 +4°C° 0.1 mm 2 m/s 706 mmHg 99%
    07:00 +5°C° 0.4 mm 2 m/s 706 mmHg 99%
    08:00 +5°C° 0.4 mm 2 m/s 706 mmHg 98%
    09:00 +5°C° 0.4 mm 2 m/s 706 mmHg 98%
    10:00 +6°C° 0.4 mm 2 m/s 706 mmHg 98%
    11:00 +6°C° 0.4 mm 2 m/s 706 mmHg 98%
    12:00 +7°C° 0.4 mm 3 m/s 706 mmHg 98%
    13:00 +7°C° 0.2 mm 3 m/s 705 mmHg 98%
    14:00 +7°C° 0.2 mm 3 m/s 705 mmHg 97%
    15:00 +7°C° 0.2 mm 3 m/s 705 mmHg 96%
    16:00 +7°C° 0.1 mm 3 m/s 705 mmHg 95%
    17:00 +5°C° 0.1 mm 3 m/s 705 mmHg 94%
    18:00 +5°C° 0.1 mm 3 m/s 705 mmHg 93%
    19:00 +4°C° 0.1 mm 3 m/s 706 mmHg 94%
    20:00 +5°C° 0.1 mm 2 m/s 706 mmHg 96%
    21:00 +4°C° 0.1 mm 2 m/s 707 mmHg 97%
    22:00 +4°C° 0.1 mm 2 m/s 707 mmHg 97%
    23:00 +3°C° 0.1 mm 2 m/s 706 mmHg 98%

    28 Aprilie, Duminică

    Timp Temperatura Precipitaţii Vânt Presiune Umiditate
    00:00 +3°C° 0.1 mm 2 m/s 706 mmHg 98%
    01:00 +3°C° 0.1 mm 2 m/s 706 mmHg 98%
    02:00 +2°C° 0.1 mm 2 m/s 706 mmHg 98%
    03:00 +2°C° 0.1 mm 2 m/s 706 mmHg 98%
    04:00 +2°C° 0 mm 2 m/s 706 mmHg 98%
    05:00 +2°C° 0 mm 2 m/s 706 mmHg 98%
    06:00 +1°C° 0 mm 2 m/s 705 mmHg 97%
    07:00 +2°C° 0.1 mm 2 m/s 705 mmHg 96%
    08:00 +3°C° 0.1 mm 2 m/s 705 mmHg 95%
    09:00 +3°C° 0.1 mm 2 m/s 705 mmHg 94%
    10:00 +4°C° 0 mm 2 m/s 705 mmHg 90%
    11:00 +5°C° 0 mm 2 m/s 705 mmHg 86%
    12:00 +6°C° 0 mm 2 m/s 705 mmHg 82%
    13:00 +7°C° 0.1 mm 2 m/s 704 mmHg 84%
    14:00 +7°C° 0.1 mm 2 m/s 704 mmHg 86%
    15:00 +7°C° 0.1 mm 2 m/s 704 mmHg 87%
    16:00 +7°C° 0.1 mm 2 m/s 704 mmHg 88%
    17:00 +7°C° 0.1 mm 2 m/s 704 mmHg 89%
    18:00 +8°C° 0.1 mm 1 m/s 704 mmHg 90%
    19:00 +7°C° 0.1 mm 1 m/s 704 mmHg 93%
    20:00 +6°C° 0.1 mm 1 m/s 704 mmHg 96%
    21:00 +6°C° 0.1 mm 1 m/s 704 mmHg 98%
    22:00 +5°C° 0 mm 1 m/s 704 mmHg 98%
    23:00 +4°C° 0 mm 1 m/s 703 mmHg 98%

    29 Aprilie, Luni

    Timp Temperatura Precipitaţii Vânt Presiune Umiditate
    00:00 +3°C° 0 mm 1 m/s 703 mmHg 99%
    01:00 +3°C° 0 mm 1 m/s 703 mmHg 98%
    02:00 +3°C° 0 mm 1 m/s 702 mmHg 98%
    03:00 +2°C° 0 mm 1 m/s 702 mmHg 98%
    04:00 +3°C° 0 mm 1 m/s 702 mmHg 98%
    05:00 +3°C° 0 mm 1 m/s 702 mmHg 97%
    06:00 +4°C° 0 mm 1 m/s 702 mmHg 96%
    07:00 +7°C° 0 mm 1 m/s 703 mmHg 84%
    08:00 +9°C° 0 mm 1 m/s 703 mmHg 73%
    09:00 +12°C° 0 mm 1 m/s 703 mmHg 61%
    10:00 +13°C° 0 mm 1 m/s 703 mmHg 56%
    11:00 +14°C° 0 mm 1 m/s 703 mmHg 51%
    12:00 +15°C° 0 mm 1 m/s 703 mmHg 47%
    13:00 +15°C° 0 mm 1 m/s 702 mmHg 47%
    14:00 +15°C° 0 mm 2 m/s 702 mmHg 48%
    15:00 +15°C° 0 mm 2 m/s 702 mmHg 48%
    16:00 +14°C° 0 mm 1 m/s 702 mmHg 54%
    17:00 +13°C° 0 mm 1 m/s 702 mmHg 61%
    18:00 +11°C° 0 mm 1 m/s 701 mmHg 67%
    19:00 +9°C° 0 mm 1 m/s 702 mmHg 74%
    20:00 +6°C° 0 mm 2 m/s 702 mmHg 82%
    21:00 +4°C° 0 mm 2 m/s 702 mmHg 89%
    22:00 +4°C° 0 mm 2 m/s 702 mmHg 91%
    23:00 +3°C° 0 mm 2 m/s 701 mmHg 93%

    30 Aprilie, Marţi

    Timp Temperatura Precipitaţii Vânt Presiune Umiditate
    00:00 +3°C° 0 mm 2 m/s 701 mmHg 95%
    01:00 +3°C° 0 mm 2 m/s 701 mmHg 95%
    02:00 +3°C° 0 mm 2 m/s 701 mmHg 95%
    03:00 +3°C° 0 mm 2 m/s 701 mmHg 96%
    04:00 +4°C° 0 mm 2 m/s 701 mmHg 92%
    05:00 +4°C° 0 mm 2 m/s 701 mmHg 89%
    06:00 +5°C° 0 mm 2 m/s 701 mmHg 86%
    07:00 +8°C° 0 mm 2 m/s 701 mmHg 74%
    08:00 +12°C° 0 mm 2 m/s 701 mmHg 62%
    09:00 +15°C° 0 mm 2 m/s 702 mmHg 50%
    10:00 +16°C° 0 mm 2 m/s 701 mmHg 46%
    11:00 +17°C° 0 mm 2 m/s 701 mmHg 42%
    12:00 +19°C° 0 mm 2 m/s 701 mmHg 37%
    13:00 +20°C° 0 mm 1 m/s 701 mmHg 37%
    14:00 +20°C° 0 mm 1 m/s 700 mmHg 38%
    15:00 +20°C° 0 mm 1 m/s 700 mmHg 38%
    16:00 +19°C° 0 mm 1 m/s 700 mmHg 47%
    17:00 +16°C° 0 mm 1 m/s 699 mmHg 56%
    18:00 +14°C° 0 mm 1 m/s 699 mmHg 66%
    19:00 +12°C° 0 mm 1 m/s 699 mmHg 72%
    20:00 +10°C° 0 mm 1 m/s 699 mmHg 78%
    21:00 +7°C° 0 mm 2 m/s 699 mmHg 83%
    22:00 +8°C° 0 mm 1 m/s 699 mmHg 85%
    23:00 +7°C° 0 mm 1 m/s 699 mmHg 87%
    Arată mai mult